TimeEST,TemperatureF,Dew PointF,Humidity,Sea Level PressureIn,VisibilityMPH,Wind Direction,Wind SpeedMPH,Gust SpeedMPH,PrecipitationIn,Events,Conditions,WindDirDegrees,DateUTC
12:51 AM,41.0,16.0,36,30.35,10.0,SSE,10.4,-,N/A,,Overcast,160,2013-11-21 05:51:00
1:51 AM,41.0,17.1,38,30.36,10.0,SSE,9.2,-,N/A,,Overcast,160,2013-11-21 06:51:00
2:51 AM,42.1,18.0,38,30.35,10.0,SSE,11.5,-,N/A,,Overcast,160,2013-11-21 07:51:00
3:51 AM,43.0,19.0,38,30.36,10.0,SSE,10.4,-,N/A,,Overcast,160,2013-11-21 08:51:00
4:51 AM,43.0,19.9,40,30.36,10.0,South,10.4,-,N/A,,Overcast,170,2013-11-21 09:51:00
5:51 AM,42.1,25.0,51,30.37,10.0,South,9.2,-,0.02,,Overcast,170,2013-11-21 10:51:00
6:51 AM,44.1,24.1,45,30.38,10.0,South,12.7,-,N/A,,Overcast,180,2013-11-21 11:51:00
7:51 AM,42.1,28.0,58,30.38,10.0,South,15.0,-,0.00,Rain,Light Rain,180,2013-11-21 12:51:00
8:51 AM,41.0,32.0,70,30.37,10.0,South,10.4,-,0.00,Rain,Light Rain,170,2013-11-21 13:51:00
9:51 AM,41.0,34.0,76,30.38,10.0,South,9.2,-,0.01,Rain,Light Rain,180,2013-11-21 14:51:00
10:51 AM,42.1,35.1,76,30.39,10.0,South,12.7,-,0.01,Rain,Light Rain,180,2013-11-21 15:51:00
11:51 AM,43.0,36.0,76,30.37,10.0,South,10.4,-,0.00,,Overcast,170,2013-11-21 16:51:00
12:51 PM,43.0,37.0,80,30.35,10.0,SSE,6.9,-,0.00,Rain,Light Rain,150,2013-11-21 17:51:00
1:51 PM,45.0,37.9,76,30.32,10.0,SSE,6.9,-,0.00,,Overcast,150,2013-11-21 18:51:00
2:51 PM,45.0,37.9,76,30.30,10.0,SSE,9.2,-,0.00,Rain,Light Rain,160,2013-11-21 19:51:00
3:51 PM,45.0,37.9,76,30.29,10.0,SSE,11.5,-,0.00,,Overcast,150,2013-11-21 20:51:00
4:51 PM,44.1,37.0,76,30.29,10.0,SE,6.9,-,0.00,,Overcast,140,2013-11-21 21:51:00
5:51 PM,44.1,37.9,79,30.30,10.0,SE,5.8,-,0.00,,Overcast,140,2013-11-21 22:51:00
6:51 PM,45.0,37.9,76,30.30,10.0,SSE,6.9,-,N/A,,Overcast,150,2013-11-21 23:51:00
7:51 PM,46.0,37.9,73,30.27,10.0,SE,6.9,-,0.00,Rain,Light Rain,140,2013-11-22 00:51:00
8:51 PM,46.0,39.0,76,30.26,10.0,SSE,5.8,-,0.00,Rain,Light Rain,150,2013-11-22 01:51:00
9:51 PM,46.0,39.0,76,30.25,10.0,SSE,8.1,-,0.01,Rain,Light Rain,160,2013-11-22 02:51:00
10:51 PM,46.0,39.9,79,30.24,10.0,SSE,5.8,-,0.01,Rain,Light Rain,160,2013-11-22 03:51:00
10:54 PM,46.0,39.9,79,30.22,10.0,SSE,5.8,-,0.00,Rain,Light Rain,160,2013-11-22 03:54:00
11:51 PM,46.0,42.1,86,30.23,8.0,South,3.5,-,0.03,Rain,Light Rain,190,2013-11-22 04:51:00